Tracking 19638 objects as of 18-Apr-2019
HD Live streaming from Space Station
objects crossing your sky now

CBERS 1 DEB

Track CBERS 1 DEB now!
10-day predictions


NORAD ID: 30789
Int'l Code: 1999-057NY
Perigee: 749.4 km
Apogee: 761.9 km
Inclination: 98.5 °
Period: 99.8 minutes
Semi major axis: 7126 km
RCS: 0.025 m2 (small)
Launch date: October 14, 1999
Source: China/Brazil (CHBZ)
Launch site: Taiyaun Space Center, China (TSC)

Note: This is SATELLITE DEBRIS
aabbcc
Your satellite tracking list
Your tracking list is empty




NASA's NSSDC Master Catalog

Two Line Element Set (TLE):
1 30789U 99057NY  19107.82369878 +.00000416 +00000-0 +13754-3 0  9990
2 30789 098.5269 062.9897 0008761 068.4343 355.1135 14.43019579637720
Source of the keplerian elements: AFSPC